ATLAS D DEB, 2327

Orbit data source: Space-Track

ATLAS D DEB, 2327 is space debris in LEO originally from a launch on Thu, 14 Jul 1966 UTC launched from the Air Force Western Test Range (AFWTR). Debris objects in space refer to the collection of defunct objects orbiting the Earth. Examples of debris include non-operational satellites, rocket bodies, and fragments generated from explosions, collisions, or faulty payload assembly.

Loading next visibility...
ATLAS D DEB details
Identifier
2327, 1966-063B
Orbit
LEO
Last TLE update12 hours ago
Origin
Flag of USUSAF OAR (US)
ManufacturerGoodyear
MissionSpacecraft
Bus & MotorCONTAINER, Unknown motor
Mass2 kg wet, 2 kg dry
Launch date (UTC)
1966-07-14 (59 years ago)
Launch vehicleUnknown
Launch site
Air Force Western Test Range (AFWTR)
Object type
Payload
Rocket body
Debris
Shape & HBRHalf Cyl, 0.5 m
Radar Cross Section0.210 m², Medium (>0.1 m² and < 1m²)

Expand to show TLE details & history

TLE from 12 hours ago
0 ATLAS D DEB
1  2327U 66063B   25037.53252136  .00002567  00000-0  14215-2 0  9994
2  2327 144.1949 249.0889 0031260 156.0257 204.1891 14.04177480968819
Epoch: 2025-02-06T12:46Z
Definitive object data (Epoch: 2025-02-06T12:46:49.845Z)
Latitude-0.00001°
Longitude-79.52652°
Altitude899.113 km
Speed7.394 km/s
True Right ascension16h 36m 21s
True Declination0° 00' 00"
Sunlit
Object was in daylight at TLE epoch
Visualization TLE readout
Latitude26.7443°
Longitude-120.9308°
Altitude886.327 km
Speed7.409 km/s
Apparent Right ascension14h 23m 31s
Apparent Declination-4° 10' 10"
Sunlit
Object is in daylight
Visualization observer readout
Local Sidereal Time03:07:05
Azimuth18.212° NNE
Elevation-52.924°
Doppler factor1
Orbital elements
Apogee altitude905.02 km
Perigee altitude859.627 km
Semi-major axis7,260.46 km
Eccentricity0.003126
Inclination144.1949°
RAAN249.0889°
Arg. of periapsis156.0257°
True anomaly204.04284°
Mean anomaly204.1891°
Eccentric anomaly204.11592°
Mean motion3.5083 °/min
BSTAR0.0014215
Orbital period102.61 mins
Loading maneuver chart data...
Loading historical data...
Loading historical data...
Loading historical data...
Loading historical data...
Loading historical data...
Loading historical data...
Loading historical data...

ATLAS D DEB Visibility forecast

Observer location: undefined°, undefined

Span
Click to sort rows by Start time (UTC) header in descending order
Start Az.
Max El. time (UTC)
Max El. Az.
Max El.
End time (UTC)
End Az.
5 mins2025-02-07 04:43:55.465Z120.227° SE2025-02-07 04:45:55.465Z143.796° SSE14.472°2025-02-07 04:48:55.465Z180.415° SSW
7 mins2025-02-07 06:20:55.465Z108.286° ESE2025-02-07 06:23:55.465Z161.757° S30.374°2025-02-07 06:27:55.465Z222.766° SW
8 mins2025-02-07 07:57:55.465Z103.807° ESE2025-02-07 08:00:55.465Z162.64° S39.568°2025-02-07 08:05:55.465Z251.22° W
8 mins2025-02-07 09:34:55.465Z117.473° SE2025-02-07 09:37:55.465Z170.059° S38.703°2025-02-07 09:42:55.465Z263.056° W
8 mins2025-02-07 11:11:55.465Z144.014° SSE2025-02-07 11:15:55.465Z207.646° SW28.569°2025-02-07 11:19:55.465Z260.97° W
|